[[{"header":{"parameterUnit":"m.s-1","parameterCategory":1,"la1":30.2991,"la2":30.254,"lo1":-89.0895,"lo2":-89.0444,"dy":0.0017,"dx":0.0017,"nx":28,"ny":28,"refTime":"2025-04-11T09:00:00:Z","depth":0,"parameterNumber":2,"parameterNumberName":"U-component_of_WINDS"},"data":[0,0,0,0,0,0,0,0,0,0,0,0,0,0,0,0,0,0,0,0,0,0,0,0,0,0,0,0,0,0,0,0,0,0,0,0,0,0,0,0,0,0,0,0,0,0,0,0,0,0,0,0,0,0,0,0,0,0,-1.1021,-1.1021,0,-1.1047,-1.1048,-1.1048,-1.1028,-1.1027,-1.1026,-1.1025,-1.1054,-1.1056,-1.1057,0,0,0,0,0,0,0,0,0,0,0,0,0,-1.0955,-1.0956,-1.1021,-1.1021,-1.1022,-1.1047,-1.1048,-1.1048,-1.1028,-1.1027,-1.1026,-1.1025,-1.1054,-1.1055,-1.1057,0,0,0,0,0,0,0,0,0,0,0,0,0,-1.0983,-1.0957,-1.1021,-1.1015,-1.1015,-1.1047,-1.1048,-1.1048,-1.1028,-1.1027,-1.1026,-1.1025,-1.1053,-1.1055,-1.1058,-1.1099,0,0,-1.1065,-1.1066,0,0,0,0,0,0,0,0,-1.0981,-1.0985,-1.1015,-1.1015,-1.1015,-1.1033,-1.1035,-1.1065,-1.1029,-1.1023,-1.1025,-1.1024,-1.1048,-1.1051,-1.1059,-1.11,-1.1101,-1.1065,-1.1067,-1.1068,-1.1068,0,0,0,0,0,0,0,-1.0979,-1.0984,-1.1032,-1.1016,-1.1016,-1.1011,-1.1014,-1.1041,-1.1043,-1.1024,-1.1022,-1.1025,-1.1048,-1.1057,-1.1059,-1.1102,-1.1065,-1.1067,-1.1069,-1.107,-1.1178,-1.118,0,0,0,0,0,0,-1.0978,-1.0983,-1.1031,-1.1032,-1.0995,-1.1013,-1.1016,-1.1029,-1.1042,-1.1043,-1.1027,-1.1024,-1.1053,-1.1057,-1.106,-1.111,-1.1068,-1.107,-1.1071,-1.1177,-1.1179,-1.118,0,0,0,0,0,0,-1.0976,-1.0982,-1.103,-1.1007,-1.1013,-1.1016,-1.103,-1.103,-1.1038,-1.1045,-1.1045,-1.1035,-1.1052,-1.1057,-1.1089,-1.1111,-1.1071,-1.1073,-1.1175,-1.1177,-1.1179,-1.1209,0,0,0,0,0,0,-1.0975,-1.0982,-1.0997,-1.1008,-1.1014,-1.1058,-1.1031,-1.1031,-1.1042,-1.104,-1.1053,-1.1054,-1.1052,-1.1086,-1.1092,-1.1113,-1.1075,-1.1173,-1.1176,-1.1179,-1.1206,-1.1212,-1.1217,0,0,0,0,0,-1.0972,-1.1005,-1.0998,-1.1004,-1.1033,-1.1059,-1.1063,-1.1059,-1.1044,-1.106,-1.1064,-1.1053,-1.1107,-1.1089,-1.1096,-1.1118,-1.1172,-1.1175,-1.1178,-1.1204,-1.1211,-1.1217,0,0,0,0,0,0,-1.0997,-1.1006,-1.0999,-1.1035,-1.1046,-1.1056,-1.1075,-1.1067,-1.1083,-1.108,-1.1076,-1.1079,-1.1113,-1.1119,-1.1099,-1.1159,-1.1137,-1.1142,-1.1154,-1.1161,-1.1166,-1.1165,-1.1077,0,0,0,0,0,-1.1007,-1.1027,-1.1033,-1.1065,-1.1071,-1.1072,-1.1083,-1.108,-1.1091,-1.1096,-1.1103,-1.1115,-1.1135,-1.1148,-1.1166,-1.1206,-1.1209,-1.1225,-1.123,-1.1235,-1.1239,-1.1262,-1.1269,-1.1191,-1.1191,-1.1191,0,0,-1.1027,-1.1034,-1.1047,-1.107,-1.1078,-1.11,-1.1076,-1.11,-1.1116,-1.11,-1.1131,-1.1136,-1.115,-1.1186,-1.1203,-1.1192,-1.1261,-1.1239,-1.1242,-1.1245,-1.1266,-1.1273,-1.128,-1.1193,-1.1193,-1.1192,0,0,-1.1075,-1.1082,-1.111,-1.1118,-1.1131,-1.1132,-1.1138,-1.1149,-1.1151,-1.1182,-1.1171,-1.119,-1.1224,-1.1234,-1.1244,-1.1296,-1.1287,-1.1302,-1.1331,-1.1352,-1.1359,-1.1364,-1.1384,-1.1391,-1.1306,-1.1306,-1.1306,0,-1.1099,-1.113,-1.1125,-1.1149,-1.116,-1.1146,-1.1174,-1.1183,-1.1202,-1.121,-1.1197,-1.124,-1.1248,-1.1287,-1.1299,-1.1307,-1.1316,-1.1301,-1.1358,-1.1363,-1.1369,-1.1387,-1.1395,-1.1308,-1.1308,-1.1308,-1.1308,0,-1.116,-1.1181,-1.1202,-1.122,-1.1233,-1.1259,-1.1258,-1.1272,-1.1267,-1.1269,-1.1301,-1.131,-1.133,-1.1339,-1.1335,-1.1378,-1.1371,-1.1358,-1.1337,-1.1378,-1.1395,-1.1402,-1.1311,-1.131,-1.131,-1.1309,0,0,-1.1225,-1.1239,-1.1247,-1.1255,-1.1268,-1.1285,-1.1311,-1.133,-1.1343,-1.1355,-1.1378,-1.1407,-1.1395,-1.1406,-1.1402,-1.1422,-1.1463,-1.1407,-1.1407,-1.1418,-1.1513,-1.1523,-1.1532,-1.1457,-1.1458,-1.1459,-1.1512,0,-1.1275,-1.1319,-1.1315,-1.1357,-1.1378,-1.1365,-1.1387,-1.1398,-1.1401,-1.1419,-1.1422,-1.1443,-1.1425,-1.1432,-1.145,-1.1454,-1.1483,-1.145,-1.1479,-1.148,-1.1477,-1.1541,-1.1552,-1.1601,-1.1519,-1.152,-1.1521,0,-1.1339,-1.1354,-1.1398,-1.1408,-1.1417,-1.1437,-1.1455,-1.1472,-1.1484,-1.1485,-1.1497,-1.149,-1.1517,-1.1494,-1.1531,-1.1509,-1.152,-1.1524,-1.1526,-1.1529,-1.1504,-1.1547,-1.1616,-1.1624,-1.1531,-1.153,-1.153,0,-1.1383,-1.1414,-1.1445,-1.1452,-1.1465,-1.1479,-1.1485,-1.1496,-1.1508,-1.1524,-1.1532,-1.155,-1.1561,-1.1575,-1.1574,-1.1557,-1.1613,-1.1589,-1.1615,-1.1615,-1.1628,-1.1628,-1.1702,-1.1633,-1.1633,-1.1633,-1.1633,0,-1.144,-1.1468,-1.1466,-1.1485,-1.1516,-1.1511,-1.1542,-1.1546,-1.1556,-1.1576,-1.1566,-1.1585,-1.1582,-1.1601,-1.16,-1.1632,-1.1636,-1.1638,-1.1638,-1.164,-1.164,-1.1648,-1.1645,-1.1635,-1.1634,-1.1634,-1.1634,0,-1.1496,-1.1495,-1.1528,-1.1537,-1.154,-1.1562,-1.157,-1.1589,-1.159,-1.1616,-1.1621,-1.1624,-1.1646,-1.1646,-1.1672,-1.1671,-1.1711,-1.1706,-1.1707,-1.1706,-1.1732,-1.173,-1.1815,-1.1827,-1.175,-1.1751,-1.1751,0,-1.1532,-1.1554,-1.1565,-1.1577,-1.1584,-1.1604,-1.1616,-1.1612,-1.1625,-1.1641,-1.1658,-1.1679,-1.1696,-1.1733,-1.1737,-1.1757,-1.1753,-1.1782,-1.1756,-1.1758,-1.1755,-1.1755,-1.1757,-1.1787,-1.1788,-1.1789,-1.1789,0,-1.1598,-1.1597,-1.1614,-1.1632,-1.1647,-1.1661,-1.1674,-1.1685,-1.1682,-1.1697,-1.172,-1.1733,-1.1759,-1.1781,-1.18,-1.1807,-1.1798,-1.1797,-1.1804,-1.1807,-1.1807,-1.1809,-1.1722,-1.1795,-1.1795,-1.1794,-1.1794,-1.1794,-1.1646,-1.1665,-1.1676,-1.1696,-1.1705,-1.1717,-1.1735,-1.1738,-1.1757,-1.1778,-1.1774,-1.18,-1.1812,-1.1836,-1.1844,-1.1865,-1.1855,-1.1865,-1.1868,-1.1871,-1.1875,-1.1803,-1.1868,-1.1868,-1.1868,-1.1868,-1.1868,0,-1.1713,-1.1719,-1.1737,-1.1756,-1.1772,-1.1761,-1.1774,-1.1789,-1.1811,-1.1823,-1.184,-1.1866,-1.1887,-1.1893,-1.1913,-1.1929,-1.1925,-1.1934,-1.1934,-1.1936,-1.1882,-1.1874,-1.1937,-1.1937,-1.1937,-1.1937,-1.1937,-1.1937,-1.1749,-1.178,-1.178,-1.1816,-1.1822,-1.1847,-1.1855,-1.1867,-1.1876,-1.1906,-1.1923,-1.1926,-1.1936,-1.1957,-1.1976,-1.1977,-1.1986,-1.1997,-1.1997,-1.1946,-1.194,-1.1933,-1.1926,-1.1999,-1.1999,-1.205,-1.205,-1.205]},{"header":{"parameterUnit":"m.s-1","parameterCategory":1,"la1":30.2991,"la2":30.254,"lo1":-89.0895,"lo2":-89.0444,"dy":0.0017,"dx":0.0017,"nx":28,"ny":28,"refTime":"2025-04-11T09:00:00:Z","depth":0,"parameterNumber":3,"parameterNumberName":"V-component_of_WINDS"},"data":[0,0,0,0,0,0,0,0,0,0,0,0,0,0,0,0,0,0,0,0,0,0,0,0,0,0,0,0,0,0,0,0,0,0,0,0,0,0,0,0,0,0,0,0,0,0,0,0,0,0,0,0,0,0,0,0,0,0,-3.4957,-3.4957,0,-3.4974,-3.4974,-3.4975,-3.4937,-3.4936,-3.4934,-3.4933,-3.4948,-3.495,-3.4951,0,0,0,0,0,0,0,0,0,0,0,0,0,-3.4891,-3.4892,-3.4957,-3.4957,-3.4958,-3.4974,-3.4974,-3.4975,-3.4937,-3.4935,-3.4934,-3.4933,-3.4948,-3.4949,-3.4951,0,0,0,0,0,0,0,0,0,0,0,0,0,-3.4915,-3.4892,-3.4957,-3.4941,-3.494,-3.4974,-3.4974,-3.4975,-3.4937,-3.4935,-3.4934,-3.4932,-3.4947,-3.4949,-3.4952,-3.5002,0,0,-3.4958,-3.4959,0,0,0,0,0,0,0,0,-3.4913,-3.4917,-3.4943,-3.4942,-3.4941,-3.4952,-3.4956,-3.4984,-3.4938,-3.4938,-3.4933,-3.4931,-3.4951,-3.4952,-3.496,-3.5003,-3.5003,-3.4959,-3.496,-3.4961,-3.4962,0,0,0,0,0,0,0,-3.4912,-3.4916,-3.4964,-3.4944,-3.4942,-3.4932,-3.4934,-3.4961,-3.4954,-3.4938,-3.4935,-3.4938,-3.495,-3.4957,-3.496,-3.5003,-3.4959,-3.4961,-3.4962,-3.4963,-3.509,-3.5092,0,0,0,0,0,0,-3.4912,-3.4915,-3.4963,-3.4964,-3.4922,-3.4935,-3.4937,-3.495,-3.4954,-3.4953,-3.4939,-3.4936,-3.4954,-3.4957,-3.496,-3.5021,-3.4961,-3.4963,-3.4964,-3.5088,-3.509,-3.5093,0,0,0,0,0,0,-3.4911,-3.4917,-3.4963,-3.4939,-3.4944,-3.4938,-3.4953,-3.4951,-3.4959,-3.4955,-3.4953,-3.4949,-3.4953,-3.4957,-3.4992,-3.502,-3.4964,-3.4966,-3.5086,-3.5089,-3.5092,-3.5141,0,0,0,0,0,0,-3.4909,-3.4917,-3.4936,-3.494,-3.4946,-3.4995,-3.4955,-3.4953,-3.4963,-3.4959,-3.4963,-3.4962,-3.4952,-3.4989,-3.4995,-3.5023,-3.4968,-3.5083,-3.5087,-3.5091,-3.5137,-3.5146,-3.5153,0,0,0,0,0,-3.4907,-3.4949,-3.4937,-3.4943,-3.497,-3.4997,-3.5,-3.4988,-3.4966,-3.4985,-3.4983,-3.4962,-3.5016,-3.4993,-3.4999,-3.5028,-3.5081,-3.5086,-3.509,-3.5133,-3.5144,-3.5153,0,0,0,0,0,0,-3.4947,-3.4949,-3.4936,-3.498,-3.4989,-3.4991,-3.5014,-3.4999,-3.5013,-3.5009,-3.4992,-3.4994,-3.5033,-3.5033,-3.5007,-3.5078,-3.5045,-3.5051,-3.5076,-3.5086,-3.5093,-3.5093,-3.497,0,0,0,0,0,-3.4961,-3.4984,-3.4984,-3.5023,-3.5028,-3.5021,-3.5032,-3.5022,-3.503,-3.5033,-3.5033,-3.5041,-3.506,-3.5072,-3.5089,-3.5137,-3.5138,-3.516,-3.5168,-3.5174,-3.518,-3.5206,-3.5216,-3.5107,-3.5107,-3.5107,0,0,-3.499,-3.4994,-3.5009,-3.5031,-3.5036,-3.506,-3.5024,-3.505,-3.5067,-3.5037,-3.5071,-3.5071,-3.5079,-3.5121,-3.5139,-3.5123,-3.521,-3.518,-3.5185,-3.5187,-3.5212,-3.5222,-3.5231,-3.511,-3.511,-3.5109,0,0,-3.5056,-3.5061,-3.5094,-3.5101,-3.5111,-3.5106,-3.5114,-3.5118,-3.5118,-3.5152,-3.513,-3.515,-3.5182,-3.5189,-3.5197,-3.5267,-3.5249,-3.5273,-3.5314,-3.534,-3.5349,-3.5356,-3.5383,-3.5392,-3.5278,-3.5278,-3.5278,0,-3.5091,-3.5126,-3.5113,-3.5142,-3.5152,-3.5127,-3.5161,-3.5168,-3.5182,-3.519,-3.5171,-3.5213,-3.5216,-3.526,-3.5277,-3.5284,-3.5293,-3.5272,-3.5349,-3.5356,-3.5363,-3.5388,-3.5398,-3.5281,-3.5281,-3.528,-3.528,0,-3.517,-3.5195,-3.522,-3.5237,-3.525,-3.5281,-3.5272,-3.5287,-3.5276,-3.5273,-3.5309,-3.5312,-3.533,-3.534,-3.5328,-3.5383,-3.5372,-3.5351,-3.5319,-3.5377,-3.54,-3.5409,-3.5285,-3.5284,-3.5283,-3.5282,0,0,-3.5261,-3.527,-3.528,-3.5288,-3.5297,-3.5316,-3.5346,-3.5364,-3.5378,-3.5388,-3.5414,-3.5442,-3.5424,-3.5433,-3.5422,-3.5445,-3.5502,-3.5421,-3.5421,-3.5437,-3.5563,-3.558,-3.5591,-3.549,-3.5491,-3.5493,-3.5563,0,-3.5327,-3.538,-3.537,-3.5421,-3.5445,-3.5422,-3.5448,-3.5456,-3.5454,-3.5474,-3.5471,-3.5492,-3.5465,-3.5471,-3.5492,-3.549,-3.5527,-3.5485,-3.5513,-3.5514,-3.5514,-3.5603,-3.562,-3.5686,-3.5572,-3.5573,-3.5574,0,-3.5411,-3.5427,-3.5482,-3.5488,-3.5498,-3.5522,-3.5539,-3.5557,-3.5566,-3.5564,-3.5575,-3.556,-3.559,-3.5556,-3.5597,-3.5569,-3.558,-3.5581,-3.5583,-3.5586,-3.5549,-3.561,-3.5707,-3.5718,-3.5588,-3.5587,-3.5586,0,-3.5474,-3.5509,-3.5546,-3.5553,-3.5562,-3.5579,-3.5584,-3.5591,-3.5603,-3.5618,-3.5626,-3.5643,-3.5653,-3.5666,-3.5657,-3.5633,-3.57,-3.5665,-3.5699,-3.57,-3.5715,-3.5715,-3.5817,-3.572,-3.572,-3.572,-3.572,0,-3.555,-3.5584,-3.5575,-3.5598,-3.5637,-3.5624,-3.5662,-3.5663,-3.567,-3.5693,-3.5673,-3.5695,-3.5681,-3.5701,-3.5694,-3.573,-3.5734,-3.5733,-3.5731,-3.5735,-3.5736,-3.5743,-3.5739,-3.5723,-3.5722,-3.5721,-3.5721,0,-3.5627,-3.5622,-3.5662,-3.5667,-3.5669,-3.5698,-3.5702,-3.5723,-3.572,-3.575,-3.5756,-3.5751,-3.5774,-3.5766,-3.5791,-3.5786,-3.5832,-3.5823,-3.583,-3.5828,-3.5863,-3.5861,-3.5975,-3.599,-3.5882,-3.5883,-3.5884,0,-3.5676,-3.5703,-3.5712,-3.5726,-3.5733,-3.5756,-3.5769,-3.5758,-3.5772,-3.5785,-3.5805,-3.5827,-3.5844,-3.5883,-3.5881,-3.59,-3.5892,-3.5931,-3.5895,-3.5899,-3.5895,-3.5894,-3.5897,-3.5939,-3.594,-3.5941,-3.5942,0,-3.5765,-3.5762,-3.5782,-3.5802,-3.5819,-3.5833,-3.5846,-3.5859,-3.5848,-3.5866,-3.589,-3.5903,-3.5929,-3.5952,-3.5969,-3.5972,-3.5956,-3.5953,-3.5962,-3.5968,-3.5971,-3.5972,-3.5851,-3.5951,-3.595,-3.5949,-3.5949,-3.5948,-3.5831,-3.5854,-3.5864,-3.5888,-3.5897,-3.591,-3.5931,-3.5931,-3.5952,-3.5973,-3.5965,-3.5993,-3.6002,-3.6024,-3.603,-3.6052,-3.6037,-3.605,-3.6053,-3.6057,-3.6062,-3.5967,-3.6055,-3.6054,-3.6054,-3.6054,-3.6054,0,-3.592,-3.5926,-3.5947,-3.5967,-3.5986,-3.5969,-3.5983,-3.6,-3.6025,-3.6036,-3.6053,-3.6082,-3.6104,-3.6104,-3.6125,-3.6142,-3.6135,-3.6148,-3.6147,-3.6149,-3.6074,-3.6065,-3.6153,-3.6153,-3.6153,-3.6153,-3.6153,-3.6153,-3.5968,-3.6007,-3.6005,-3.6049,-3.6054,-3.6083,-3.6092,-3.6104,-3.6112,-3.6146,-3.6164,-3.6165,-3.6171,-3.6192,-3.6212,-3.6211,-3.622,-3.6236,-3.6233,-3.6163,-3.6154,-3.6144,-3.6136,-3.6238,-3.6238,-3.6306,-3.6307,-3.6307]}]]